EZY464 LFRB-EGKK

Flight info

Callsign EZY464
Flight time 0h 50m
Altitude 26000
Route NORBU DCT NOZHU/N0419F270 DCT OTMET
Aircraft A321/M-SDE3FGHIRWY/LB1

Departure

Time 2026-04-20 16:23
Airport Brest Bretagne airport (LFRB)

Arrival

Time 2026-04-20 17:13
Airport London Gatwick Airport (EGKK)
Time Latitude Longitude Altitude Speed Heading
2026-04-20 16:04 48.44609 -4.41558 318 ft 0 kts 160°
2026-04-20 16:13 48.44628 -4.41567 316 ft 4 kts 168°
2026-04-20 16:14 48.44654 -4.41571 317 ft 4 kts 187°
2026-04-20 16:14 48.44677 -4.41559 317 ft 4 kts 232°
2026-04-20 16:14 48.44682 -4.41547 318 ft 0 kts 251°
2026-04-20 16:17 48.44681 -4.41555 318 ft 3 kts 251°
2026-04-20 16:17 48.44673 -4.41586 318 ft 3 kts 251°
2026-04-20 16:17 48.44664 -4.41625 318 ft 6 kts 251°
2026-04-20 16:17 48.44647 -4.41699 318 ft 9 kts 251°
2026-04-20 16:18 48.44626 -4.41791 318 ft 9 kts 251°
2026-04-20 16:18 48.44606 -4.41880 318 ft 9 kts 251°
2026-04-20 16:18 48.44587 -4.41967 317 ft 9 kts 250°
2026-04-20 16:18 48.44575 -4.42051 317 ft 8 kts 273°
2026-04-20 16:19 48.44601 -4.42115 317 ft 6 kts 327°
2026-04-20 16:19 48.44644 -4.42141 318 ft 8 kts 340°
2026-04-20 16:19 48.44688 -4.42193 319 ft 11 kts 298°
2026-04-20 16:19 48.44670 -4.42361 315 ft 22 kts 250°
2026-04-20 16:20 48.44611 -4.42620 315 ft 30 kts 251°
2026-04-20 16:20 48.44534 -4.42961 315 ft 38 kts 251°
2026-04-20 16:20 48.44444 -4.43365 316 ft 41 kts 252°
2026-04-20 16:20 48.44384 -4.43634 314 ft 19 kts 251°
2026-04-20 16:21 48.44379 -4.43795 314 ft 10 kts 282°
2026-04-20 16:21 48.44353 -4.43830 313 ft 5 kts 165°
2026-04-20 16:21 48.44347 -4.43795 313 ft 3 kts 77°
2026-04-20 16:21 48.44349 -4.43785 313 ft 0 kts 72°
2026-04-20 16:22 48.44400 -4.43564 315 ft 58 kts 70°
2026-04-20 16:22 48.44603 -4.42677 314 ft 118 kts 71°
2026-04-20 16:22 48.44911 -4.41301 418 ft 152 kts 70°
2026-04-20 16:23 48.45228 -4.39779 988 ft 153 kts 69°
2026-04-20 16:23 48.45684 -4.38338 1653 ft 153 kts 60°
2026-04-20 16:23 48.46330 -4.37048 2210 ft 161 kts 52°
2026-04-20 16:23 48.47232 -4.35851 2504 ft 186 kts 39°
2026-04-20 16:24 48.48470 -4.34887 2838 ft 216 kts 24°
2026-04-20 16:24 48.50034 -4.34414 3273 ft 245 kts
2026-04-20 16:24 48.51812 -4.34669 3810 ft 266 kts 352°
2026-04-20 16:24 48.53672 -4.35130 4622 ft 276 kts 353°
2026-04-20 16:25 48.55585 -4.35588 5474 ft 281 kts 352°
2026-04-20 16:25 48.57516 -4.36044 6462 ft 280 kts 352°
2026-04-20 16:25 48.59451 -4.36498 7349 ft 283 kts 351°
2026-04-20 16:25 48.61402 -4.36958 8231 ft 284 kts 351°
2026-04-20 16:26 48.63323 -4.37502 9110 ft 285 kts 344°
2026-04-20 16:26 48.65237 -4.38347 10004 ft 287 kts 343°
2026-04-20 16:26 48.67197 -4.39218 10453 ft 304 kts 342°
2026-04-20 16:26 48.69304 -4.40157 10670 ft 327 kts 342°
2026-04-20 16:27 48.71595 -4.40990 10906 ft 348 kts 350°
2026-04-20 16:27 48.74048 -4.41131 11485 ft 358 kts
2026-04-20 16:27 48.76523 -4.40500 12199 ft 365 kts 12°
2026-04-20 16:27 48.78920 -4.39111 12923 ft 372 kts 22°
2026-04-20 16:28 48.81294 -4.37493 13644 ft 376 kts 21°
2026-04-20 16:28 48.83696 -4.35858 14319 ft 380 kts 20°
2026-04-20 16:28 48.86116 -4.34212 14951 ft 383 kts 20°
2026-04-20 16:28 48.88558 -4.32553 15563 ft 386 kts 20°
2026-04-20 16:29 48.91022 -4.30879 16166 ft 389 kts 21°
2026-04-20 16:29 48.93508 -4.29189 16772 ft 393 kts 21°
2026-04-20 16:29 48.96014 -4.27480 17376 ft 396 kts 19°
2026-04-20 16:29 48.98538 -4.25757 17959 ft 400 kts 21°
2026-04-20 16:30 49.01089 -4.24016 18547 ft 403 kts 20°
2026-04-20 16:30 49.03657 -4.22262 19025 ft 407 kts 20°
2026-04-20 16:30 49.06250 -4.20487 19523 ft 410 kts 20°
2026-04-20 16:30 49.08865 -4.18691 20021 ft 413 kts 20°
2026-04-20 16:31 49.11496 -4.16878 20518 ft 416 kts 20°
2026-04-20 16:31 49.14148 -4.15048 21006 ft 419 kts 20°
2026-04-20 16:31 49.16813 -4.13204 21486 ft 422 kts 20°
2026-04-20 16:31 49.19501 -4.11346 21993 ft 426 kts 19°
2026-04-20 16:32 49.22210 -4.09474 22465 ft 429 kts 19°
2026-04-20 16:32 49.24936 -4.07593 22979 ft 431 kts 19°
2026-04-20 16:32 49.27684 -4.05696 23482 ft 434 kts 19°
2026-04-20 16:32 49.30443 -4.03784 23935 ft 437 kts 19°
2026-04-20 16:33 49.33221 -4.01854 24328 ft 439 kts 19°
2026-04-20 16:33 49.36013 -3.99914 24735 ft 442 kts 19°
2026-04-20 16:33 49.38818 -3.97966 25142 ft 444 kts 19°
2026-04-20 16:33 49.41642 -3.96000 25532 ft 447 kts 19°
2026-04-20 16:34 49.44480 -3.94018 25916 ft 449 kts 19°
2026-04-20 16:34 49.47329 -3.92027 26159 ft 451 kts 19°
2026-04-20 16:34 49.50176 -3.90031 26202 ft 448 kts 19°
2026-04-20 16:34 49.53010 -3.88042 26201 ft 447 kts 19°
2026-04-20 16:35 49.55841 -3.86056 26204 ft 447 kts 19°
2026-04-20 16:35 49.58636 -3.84095 26204 ft 447 kts 19°
2026-04-20 16:35 49.61468 -3.82109 26204 ft 447 kts 19°
2026-04-20 16:35 49.64298 -3.80119 26209 ft 447 kts 19°
2026-04-20 16:36 49.67126 -3.78125 26212 ft 447 kts 20°
2026-04-20 16:36 49.69874 -3.75802 26222 ft 454 kts 28°
2026-04-20 16:36 49.72415 -3.72848 26209 ft 459 kts 34°
2026-04-20 16:36 49.74905 -3.69753 26211 ft 459 kts 34°
2026-04-20 16:37 49.77400 -3.66666 26208 ft 459 kts 33°
2026-04-20 16:37 49.79892 -3.63589 26202 ft 459 kts 33°
2026-04-20 16:37 49.82388 -3.60508 26217 ft 459 kts 33°
2026-04-20 16:37 49.84881 -3.57420 26218 ft 459 kts 33°
2026-04-20 16:38 49.87373 -3.54323 26213 ft 459 kts 33°
2026-04-20 16:38 49.89866 -3.51219 26215 ft 459 kts 33°
2026-04-20 16:38 49.92355 -3.48115 26240 ft 459 kts 33°
2026-04-20 16:38 49.94838 -3.45016 26236 ft 458 kts 33°
2026-04-20 16:39 49.97321 -3.41911 26236 ft 458 kts 33°
2026-04-20 16:39 49.99801 -3.38800 26232 ft 458 kts 33°
2026-04-20 16:39 50.02277 -3.35686 26236 ft 458 kts 33°
2026-04-20 16:39 50.04720 -3.32614 26231 ft 457 kts 33°
2026-04-20 16:40 50.07192 -3.29505 26226 ft 457 kts 33°
2026-04-20 16:40 50.09667 -3.26389 26227 ft 457 kts 33°
2026-04-20 16:40 50.12137 -3.23275 26227 ft 457 kts 33°
2026-04-20 16:40 50.14610 -3.20162 26242 ft 457 kts 33°
2026-04-20 16:41 50.17084 -3.17045 26253 ft 457 kts 33°
2026-04-20 16:41 50.19557 -3.13919 26236 ft 457 kts 33°
2026-04-20 16:41 50.22028 -3.10791 26230 ft 457 kts 33°
2026-04-20 16:41 50.24499 -3.07658 26221 ft 457 kts 33°
2026-04-20 16:42 50.26967 -3.04523 26218 ft 458 kts 33°
2026-04-20 16:42 50.29437 -3.01380 26217 ft 458 kts 33°
2026-04-20 16:42 50.31906 -2.98234 26224 ft 458 kts 33°
2026-04-20 16:42 50.34374 -2.95088 26222 ft 458 kts 33°
2026-04-20 16:43 50.36844 -2.91938 26220 ft 458 kts 33°
2026-04-20 16:43 50.39315 -2.88783 26239 ft 458 kts 33°
2026-04-20 16:43 50.41783 -2.85622 26238 ft 458 kts 33°
2026-04-20 16:43 50.44247 -2.82455 26232 ft 458 kts 33°
2026-04-20 16:44 50.46716 -2.79278 26230 ft 458 kts 33°
2026-04-20 16:44 50.49182 -2.76101 26248 ft 458 kts 33°
2026-04-20 16:44 50.51650 -2.72923 26245 ft 458 kts 33°
2026-04-20 16:44 50.54115 -2.69750 26242 ft 458 kts 33°
2026-04-20 16:45 50.56578 -2.66569 26238 ft 458 kts 33°
2026-04-20 16:45 50.59037 -2.63384 26236 ft 458 kts 33°
2026-04-20 16:45 50.61493 -2.60188 26230 ft 459 kts 34°
2026-04-20 16:45 50.63735 -2.56569 26256 ft 467 kts 46°
2026-04-20 16:46 50.65548 -2.52274 26244 ft 475 kts 57°
2026-04-20 16:46 50.66904 -2.47479 26012 ft 481 kts 68°
2026-04-20 16:46 50.67640 -2.42381 25766 ft 487 kts 81°
2026-04-20 16:46 50.67690 -2.37049 25218 ft 487 kts 91°
2026-04-20 16:47 50.67482 -2.31703 24389 ft 489 kts 92°
2026-04-20 16:47 50.67227 -2.26359 23596 ft 489 kts 92°
2026-04-20 16:47 50.66953 -2.21051 23009 ft 482 kts 92°
2026-04-20 16:47 50.66686 -2.15795 22733 ft 480 kts 92°
2026-04-20 16:48 50.66430 -2.10558 22462 ft 478 kts 92°
2026-04-20 16:48 50.66190 -2.05339 22191 ft 476 kts 92°
2026-04-20 16:48 50.66098 -2.00155 21925 ft 471 kts 86°
2026-04-20 16:48 50.66181 -1.95012 21661 ft 469 kts 86°
2026-04-20 16:49 50.66255 -1.89886 21396 ft 466 kts 86°
2026-04-20 16:49 50.66319 -1.84795 21173 ft 464 kts 86°
2026-04-20 16:49 50.66375 -1.79720 20905 ft 462 kts 86°
2026-04-20 16:49 50.66424 -1.74663 20648 ft 460 kts 86°
2026-04-20 16:50 50.66471 -1.69634 20397 ft 457 kts 86°
2026-04-20 16:50 50.66517 -1.64642 20142 ft 455 kts 86°
2026-04-20 16:50 50.66563 -1.59665 19889 ft 452 kts 86°
2026-04-20 16:50 50.66607 -1.54726 19632 ft 449 kts 86°
2026-04-20 16:51 50.66616 -1.49811 19396 ft 447 kts 88°
2026-04-20 16:51 50.66569 -1.44979 19157 ft 445 kts 89°
2026-04-20 16:51 50.66486 -1.40119 18916 ft 443 kts 89°
2026-04-20 16:51 50.66613 -1.35307 18685 ft 437 kts 80°
2026-04-20 16:52 50.67194 -1.30646 18134 ft 429 kts 70°
2026-04-20 16:52 50.68209 -1.26291 17553 ft 421 kts 64°
2026-04-20 16:52 50.69319 -1.22046 16981 ft 416 kts 64°
2026-04-20 16:52 50.70410 -1.17840 16411 ft 412 kts 64°
2026-04-20 16:53 50.71481 -1.13670 15847 ft 408 kts 65°
2026-04-20 16:53 50.72534 -1.09532 15289 ft 404 kts 65°
2026-04-20 16:53 50.73573 -1.05427 14747 ft 400 kts 66°
2026-04-20 16:53 50.74599 -1.01359 14239 ft 395 kts 66°
2026-04-20 16:54 50.75593 -0.97406 14104 ft 379 kts 66°
2026-04-20 16:54 50.76537 -0.93648 13968 ft 357 kts 66°
2026-04-20 16:54 50.77420 -0.90119 13840 ft 334 kts 66°
2026-04-20 16:54 50.78253 -0.86792 13579 ft 318 kts 66°
2026-04-20 16:55 50.79060 -0.83577 13129 ft 311 kts 66°
2026-04-20 16:55 50.79587 -0.81486 12957 ft 308 kts 65°
2026-04-20 16:55 50.80380 -0.78349 12690 ft 306 kts 66°
2026-04-20 16:55 50.81110 -0.75198 12428 ft 305 kts 73°
2026-04-20 16:56 50.81530 -0.71904 12170 ft 305 kts 77°
2026-04-20 16:56 50.81913 -0.68614 11912 ft 303 kts 77°
2026-04-20 16:56 50.82294 -0.65352 11656 ft 301 kts 78°
2026-04-20 16:56 50.82675 -0.62105 11403 ft 300 kts 77°
2026-04-20 16:57 50.83054 -0.58876 11156 ft 297 kts 78°
2026-04-20 16:57 50.83424 -0.55675 10903 ft 295 kts 77°
2026-04-20 16:57 50.83791 -0.52488 10654 ft 294 kts 77°
2026-04-20 16:57 50.84155 -0.49317 10408 ft 291 kts 78°
2026-04-20 16:58 50.84517 -0.46177 10181 ft 289 kts 77°
2026-04-20 16:58 50.84874 -0.43062 10053 ft 288 kts 78°
2026-04-20 16:58 50.85231 -0.39951 9910 ft 286 kts 77°
2026-04-20 16:58 50.85584 -0.36854 9775 ft 285 kts 77°
2026-04-20 16:59 50.85934 -0.33773 9639 ft 284 kts 77°
2026-04-20 16:59 50.86282 -0.30703 9504 ft 283 kts 77°
2026-04-20 16:59 50.86626 -0.27639 9367 ft 282 kts 76°
2026-04-20 16:59 50.86968 -0.24588 9239 ft 281 kts 78°
2026-04-20 17:00 50.87646 -0.18551 8879 ft 279 kts 77°
2026-04-20 17:00 50.87979 -0.15583 8704 ft 269 kts 77°
2026-04-20 17:00 50.88297 -0.12734 8566 ft 257 kts 77°
2026-04-20 17:01 50.88603 -0.10004 8402 ft 247 kts 78°
2026-04-20 17:01 50.89000 -0.07406 8217 ft 237 kts 61°
2026-04-20 17:01 50.90115 -0.05598 8081 ft 229 kts 26°
2026-04-20 17:01 50.91613 -0.04933 7954 ft 224 kts
2026-04-20 17:02 50.93158 -0.05279 7821 ft 227 kts 340°
2026-04-20 17:02 50.94490 -0.06614 7688 ft 229 kts 318°
2026-04-20 17:02 50.95654 -0.08353 7561 ft 230 kts 319°
2026-04-20 17:02 50.96731 -0.10224 7433 ft 232 kts 306°
2026-04-20 17:03 50.97434 -0.12539 7308 ft 235 kts 288°
2026-04-20 17:03 50.97836 -0.15063 7187 ft 236 kts 287°
2026-04-20 17:03 50.98291 -0.17567 7049 ft 235 kts 297°
2026-04-20 17:03 50.99114 -0.19725 6913 ft 231 kts 314°
2026-04-20 17:04 51.00299 -0.21428 6551 ft 229 kts 326°
2026-04-20 17:04 51.01561 -0.22974 6206 ft 229 kts 325°
2026-04-20 17:04 51.02614 -0.24877 5870 ft 231 kts 305°
2026-04-20 17:04 51.03410 -0.27069 5548 ft 228 kts 301°
2026-04-20 17:05 51.04155 -0.29278 5204 ft 226 kts 298°
2026-04-20 17:05 51.04661 -0.31630 4856 ft 226 kts 281°
2026-04-20 17:05 51.04821 -0.34106 4508 ft 225 kts 276°
2026-04-20 17:05 51.04921 -0.36584 4175 ft 224 kts 275°
2026-04-20 17:06 51.05005 -0.39051 3844 ft 223 kts 275°
2026-04-20 17:06 51.05090 -0.41527 3415 ft 226 kts 275°
2026-04-20 17:06 51.05182 -0.44033 3023 ft 227 kts 275°
2026-04-20 17:06 51.05271 -0.46460 2995 ft 215 kts 275°
2026-04-20 17:07 51.05402 -0.48804 2992 ft 211 kts 285°
2026-04-20 17:07 51.06032 -0.50846 2995 ft 205 kts 314°
2026-04-20 17:07 51.07158 -0.52134 2998 ft 198 kts 343°
2026-04-20 17:07 51.08490 -0.52422 3002 ft 192 kts 11°
2026-04-20 17:08 51.09631 -0.51726 3011 ft 167 kts 38°
2026-04-20 17:08 51.10344 -0.50419 2996 ft 152 kts 63°
2026-04-20 17:08 51.10648 -0.48862 3001 ft 145 kts 76°
2026-04-20 17:08 51.10867 -0.47306 3005 ft 142 kts 77°
2026-04-20 17:09 51.11083 -0.45772 2999 ft 143 kts 77°
2026-04-20 17:09 51.11300 -0.44234 2999 ft 142 kts 76°
2026-04-20 17:09 51.11516 -0.42697 2954 ft 143 kts 76°
2026-04-20 17:09 51.11733 -0.41150 2842 ft 142 kts 77°
2026-04-20 17:10 51.11945 -0.39638 2676 ft 140 kts 76°
2026-04-20 17:10 51.12158 -0.38122 2485 ft 141 kts 77°
2026-04-20 17:10 51.12371 -0.36601 2295 ft 141 kts 77°
2026-04-20 17:10 51.12582 -0.35091 2119 ft 135 kts 76°
2026-04-20 17:11 51.12783 -0.33646 1920 ft 134 kts 77°
2026-04-20 17:11 51.12983 -0.32214 1743 ft 132 kts 76°
2026-04-20 17:11 51.13182 -0.30788 1541 ft 132 kts 76°
2026-04-20 17:11 51.13377 -0.29389 1380 ft 131 kts 76°
2026-04-20 17:12 51.13574 -0.27973 1201 ft 130 kts 76°
2026-04-20 17:12 51.13770 -0.26563 1012 ft 131 kts 75°
2026-04-20 17:12 51.13968 -0.25137 824 ft 131 kts 76°
2026-04-20 17:12 51.14164 -0.23728 643 ft 131 kts 76°
2026-04-20 17:13 51.14361 -0.22305 460 ft 130 kts 75°
2026-04-20 17:13 51.14559 -0.20873 278 ft 131 kts 75°
2026-04-20 17:13 51.14756 -0.19519 218 ft 109 kts 76°
2026-04-20 17:13 51.14841 -0.18859 206 ft 24 kts 77°
2026-04-20 17:14 51.14895 -0.18616 218 ft 23 kts 55°
2026-04-20 17:14 51.14978 -0.18449 212 ft 18 kts 51°
2026-04-20 17:14 51.15033 -0.18339 213 ft 3 kts 51°
2026-04-20 17:14 51.15033 -0.18338 213 ft 0 kts 51°
2026-04-20 17:15 51.15063 -0.18278 209 ft 18 kts 51°
2026-04-20 17:16 51.15127 -0.18108 208 ft 18 kts 75°
2026-04-20 17:16 51.15153 -0.17913 205 ft 18 kts 79°
2026-04-20 17:16 51.15180 -0.17712 205 ft 19 kts 77°
2026-04-20 17:16 51.15209 -0.17507 205 ft 18 kts 76°
2026-04-20 17:17 51.15234 -0.17330 213 ft 12 kts 79°
2026-04-20 17:17 51.15262 -0.17238 208 ft 9 kts 29°
2026-04-20 17:17 51.15327 -0.17242 212 ft 10 kts 349°
2026-04-20 17:17 51.15382 -0.17208 208 ft 9 kts 50°
2026-04-20 17:18 51.15411 -0.17114 210 ft 10 kts 75°
2026-04-20 17:18 51.15424 -0.17009 205 ft 10 kts 78°
2026-04-20 17:18 51.15438 -0.16903 207 ft 10 kts 77°
2026-04-20 17:18 51.15448 -0.16803 213 ft 5 kts 84°
2026-04-20 17:19 51.15468 -0.16779 211 ft 4 kts 14°
2026-04-20 17:19 51.15493 -0.16781 205 ft 4 kts 349°
2026-04-20 17:19 51.15494 -0.16782 205 ft 1 kts 348°
2026-04-20 17:19 51.15503 -0.16784 205 ft 0 kts 352°